Regional Weather Roundup
Issued by NWS

Home | Current Version | Previous Version | Graphics & Text | Print | Product List | Glossary On
Versions: 1 2 3 4 5 6 7 8 9 10 11 12 13 14 15 16 17 18 19 20 21 22 23 24 25 26 27 28 29 30 31 32 33 34 35 36 37 38 39 40 41 42 43 44 45 46 47 48 49 50
000
ASUS43 KMKX 252003
RWRWI

WISCONSIN REGIONAL WEATHER ROUNDUP
NATIONAL WEATHER SERVICE MILWAUKEE/SULLIVAN WI
300 PM CDT MON MAY 25 2015

NOTE: "FAIR" INDICATES FEW OR NO CLOUDS BELOW 12,000 FEET WITH NO
SIGNIFICANT WEATHER AND/OR OBSTRUCTIONS TO VISIBILITY.

WIZ001-002-006>008-014>016-023>028-252100-
NORTHWEST WISCONSIN

CITY           SKY/WX    TMP DP  RH WIND       PRES   REMARKS
SUPERIOR ARPT  DRIZZLE   47  46  99 NE8       29.72R
ASHLAND        CLOUDY    55  53  93 CALM      29.69S FOG
HAYWARD        CLOUDY    64  60  87 VRB6      29.69S
SIREN          CLOUDY    65  59  80 SW8G21    29.69S
CUMBERLAND     CLOUDY    64  55  72 SW20      29.70F
RICE LAKE      CLOUDY    67  57  70 SW13G18   29.72S
CHETEK         CLOUDY    68  60  74 SW9       29.71S
LADYSMITH      CLOUDY    67  60  80 SW15G23   29.73R
EAU CLAIRE     NOT AVBL
MENOMONIE      CLOUDY    69  59  71 SW14G21   29.72R
NEW RICHMOND   CLOUDY    65  59  79 SW13G18   29.72R
OSCEOLA        CLOUDY    66  60  82 SW16G24   29.74S
$$

WIZ003>005-009-010-017-018-252100-
NORTH CENTRAL WISCONSIN

CITY           SKY/WX    TMP DP  RH WIND       PRES   REMARKS
MANITOWISH WTR CLOUDY    62  62  99 W13       29.70R
ARBOR VITAE    CLOUDY    64  61  88 W13G18    29.71R
WOODRUFF       CLOUDY    64  61  88 W13G18    29.71R
RHINELANDER    CLOUDY    65  59  81 SW15G23   29.73R
EAGLE RIVER    CLOUDY    64  62  93 SW13      29.70R
LAND O LAKES   CLOUDY    64  62  91 SW8       29.69S
PHILLIPS       CLOUDY    64  61  91 SW8       29.70S
TOMAHAWK       RAIN      64  59  86 SW6       29.72S
MEDFORD        CLOUDY    64  60  85 SW10      29.75R
MERRILL        CLOUDY    68  63  83 W13       29.73S
$$

WIZ029-030-035-036-043>047-252100-
CENTRAL WISCONSIN

CITY           SKY/WX    TMP DP  RH WIND       PRES   REMARKS
WAUSAU         CLOUDY    70  60  70 SW20G25   29.73R
MOSINEE        PTSUNNY   70  63  78 SW16G24   29.76R
MARSHFIELD     PTSUNNY   72  59  63 SW18G24   29.75S
STEVENS POINT  CLOUDY    70  59  66 SW16G26   29.76R
WAUPACA        PTSUNNY   76  61  59 SW20G28   29.76R
WAUTOMA        NOT AVBL
WISC RAPIDS    CLOUDY    74  59  59 W13G23    29.77R
CAMP DOUGLAS   NOT AVBL
$$

WIZ011>013-019>022-031-037>040-048>050-252100-
NORTHEAST WISCONSIN

CITY           SKY/WX    TMP DP  RH WIND       PRES   REMARKS
ANTIGO         DRIZZLE   64  62  91 SW22G28   29.74R
SHAWANO        CLOUDY    73  62  68 SW17      29.74R
OCONTO         CLOUDY    73  64  73 SW15G21   29.72R
STURGEON BAY   PTSUNNY   73  63  68 SW14      29.75R
GREEN BAY      CLOUDY    74  64  71 SW13      29.75R
MANITOWOC      NOT AVBL
APPLETON       PTSUNNY   73  61  64 SW20G26   29.77
CLINTONVILLE   CLOUDY    73  61  64 SW15G21   29.74R
OSHKOSH        PTSUNNY   74  62  66 SW14G26   29.77S
$$

WIZ032>034-041-042-053>061-252100-
SOUTHWEST WISCONSIN

CITY           SKY/WX    TMP DP  RH WIND       PRES   REMARKS
LA CROSSE      MOSUNNY   80  61  52 SW15G29   29.75R HX  81
SPARTA         PTSUNNY   74  59  58 SW9G17    29.77R
VIROQUA        PTSUNNY   74  63  69 SW14G21   29.80R
BOSCOBEL       PTSUNNY   79  62  56 SW15G23   29.80S HX  80
PRAIRIE DU CHI MOSUNNY   77  60  54 SW20      29.79F
PLATTEVILLE    MOSUNNY   76  65  66 SW18      29.85S
$$

WIZ056-057-062-063-064-067-068-252100-
SOUTH CENTRAL WISCONSIN

CITY           SKY/WX    TMP DP  RH WIND       PRES   REMARKS
REEDSBURG      PTSUNNY   74  64  70 SW15G22   29.80R
BARABOO/DELLS  PTSUNNY   74  62  65 SW15      29.80S
LONE ROCK      NOT AVBL
MINERAL POINT  PTSUNNY   77  63  61 SW13G24   29.84S
MADISON        MOSUNNY   76  61  59 SW10G20   29.82S
MIDDLETON      PTSUNNY   77  60  55 SW14G28   29.83S
WATERTOWN      PTSUNNY   75  62  63 SW15G25   29.82R
MONROE         CLOUDY    73  63  68 SW22      29.86S
JANESVILLE     PTSUNNY   77  63  61 SW18G24   29.85S
$$

WIZ051-052-058>065-066-070>072-252100-
SOUTHEAST WISCONSIN

CITY           SKY/WX    TMP DP  RH WIND       PRES   REMARKS
MILWAUKEE      MOSUNNY   75  61  61 SW21G28   29.85R
WAUKESHA       PTSUNNY   73  61  64 SW16G23   29.85R
MILWAUKEE/TIMM PTSUNNY   75  59  57 W14G25    29.83S
RACINE         PTSUNNY   77  60  55 W15G26    29.86S
BURLINGTON     PTSUNNY   74  61  63 SW17      29.86R
KENOSHA        PTSUNNY   76  62  62 SW17G25   29.86R
FOND DU LAC    MOSUNNY   75  61  61 W20G28    29.79F
SHEBOYGAN      PTSUNNY   76  63  64 SW18G30   29.79S
WEST BEND      PTSUNNY   73  61  64 SW18G24   29.82R
JUNEAU         PTSUNNY   74  62  65 SW22      29.83R
$$

LSZ147-162-252100-
LAKE SUPERIOR

STATION/POSITION TIME  TEMP    WIND        PRES    WAVE
                       AIR SEA DIR/SP/G            HT/PER
                 (UTC) (F)     (DEG/KT/KT) (MB)    (FT/S)
W MID LAKE BUOY  1850   40 36   30/ 14/ 16 1051.0F   3/ 5
DEVILS ISLAND    1900   43      70/ 11/ 13 1058.0R
PORT WING        1940   44      30/ 10/ 14 1058.0R
SAXON HARBOR     1900   48        CALM     1051.0R
$$

LMZ867-665-643>646-252100-
LAKE MICHIGAN

STATION/POSITION TIME  TEMP    WIND        PRES    WAVE
                       AIR SEA DIR/SP/G            HT/PER
                 (UTC) (F)     (DEG/KT/KT) (MB)    (FT/S)
CHAMBERS ISLAND  1900   68     190/  9/ 14 1058.0S
N MID LAKE BUOY  1850   45 37  200/ 17/ 19 1062.0S   3/ 4
NORTHPORT PIER   1900   62     150/  5/ 12 1058.0F
SISTER BAY       1918          230/ 15/ 19   N/A
KEWAUNEE LAKESHO 1900   50     170/ 12/ 16 1063.0F
SHEBOYGAN LAKESH 1900          230/ 18/ 22 1085.0S
PORT WASHINGTON  1900          250/ 15/ 23   N/A
ATWATER BUOY     1900   69 46  230/ 17/ 21   N/A
MILWAUKEE LAKESH 1900   73     250/ 18/ 27   N/A
S MID LAKE BUOY  1850   49 38  200/ 16/ 17   N/A     2/ 4
KENOSHA   LAKESH 1900   75     230/ 14/ 25   N/A
$$

TC  - TEMPERATURE IN CELSIUS
VSB - VISIBILITY IN STATUTE MILES
WCI - WIND CHILL INDEX
HX  - HEAT INDEX



USA.gov is the U.S. government's official web portal to all federal, state and local government web resources and services.